Melbourne, FL

11:40 PM EDT on May 24, 2018 (GMT -0400)
Melbourne International

Weather History for KMLB - October, 2013

Change the Weather History Date:

Wednesday, October 9, 2013

  Actual Average Record
Temperature  
Mean Temperature 77 °F 78 °F  
Max Temperature 85 °F 86 °F 93 °F (1941)
Min Temperature 69 °F 70 °F 56 °F (1972)
Degree Days  
Heating Degree Days 0 0  
Month to date heating degree days 0 0  
Since 1 July heating degree days 0 0  
Cooling Degree Days 12 13  
Month to date cooling degree days 138 121  
Year to date cooling degree days 3084 2813  
Growing Degree Days 28 (Base 50)    
Moisture  
Dew Point 71 °F    
Average Humidity 78    
Maximum Humidity 94    
Minimum Humidity 61    
Precipitation  
Precipitation 0.10 in 0.20 in 3.89 in (1989)
Month to date precipitation 0.24 1.83  
Year to date precipitation 35.97 43.32  
Sea Level Pressure  
Sea Level Pressure 29.95 in    
Wind  
Wind Speed 13 mph (NNW)    
Max Wind Speed 22 mph    
Max Gust Speed 26 mph    
Visibility 9 miles    
Events Rain    
T = Trace of Precipitation, MM = Missing Value Source: NWS Daily Summary

Daily Weather History Graph

Daily Weather History Graph

Search for Another Location

Airport or City:

Astronomy

Oct. 09, 2013 Rise Set
Actual Time 7:19 AM EDT 6:59 PM EDT
Civil Twilight 6:56 AM EDT 7:22 PM EDT
Nautical Twilight 6:29 AM EDT 7:50 PM EDT
Astronomical Twilight 6:01 AM EDT 8:17 PM EDT
Moon 11:54 AM EDT (10/9) 10:51 PM EDT (10/9)
Length of Visible Light 12h 26m
Length of Day
11h 39m
Waxing Crescent, 25% of the Moon is Illuminated
Oct 9
Waxing Crescent
Oct 11
First Quarter
Oct 18
Full
Oct 26
Last Quarter
Nov 3
New

Hourly Weather History & Observations

Time (EDT) Temp. Heat Index Dew Point Humidity Pressure Visibility Wind Dir Wind Speed Gust Speed Precip Events Conditions
12:53 AM 73.9 °F - 73.0 °F 97% 29.93 in 10.0 mi WNW 3.5 mph - 0.01 in Rain Light Rain
1:23 AM 73.4 °F - 73.4 °F 100% 29.92 in 4.0 mi NW 4.6 mph - 0.02 in Rain Light Rain
1:28 AM 73.4 °F - 73.4 °F 100% 29.93 in 1.8 mi NW 5.8 mph - 0.07 in Rain Heavy Rain
1:35 AM 73.4 °F - 73.4 °F 100% 29.93 in 2.0 mi NNW 9.2 mph - 0.10 in Rain Heavy Rain
1:44 AM 75.2 °F - 73.4 °F 94% 29.93 in 10.0 mi North 10.4 mph - 0.10 in Rain Light Rain
1:53 AM 75.0 °F - 73.0 °F 94% 29.93 in 10.0 mi NNW 9.2 mph - 0.10 in   Overcast
2:03 AM 75.2 °F - 73.4 °F 94% 29.92 in 10.0 mi NNW 9.2 mph - N/A   Overcast
2:49 AM 75.2 °F - 73.4 °F 94% 29.91 in 10.0 mi NW 5.8 mph - 0.00 in   Overcast
2:53 AM 75.0 °F - 73.0 °F 94% 29.91 in 10.0 mi NW 6.9 mph - 0.00 in   Overcast
3:28 AM 73.4 °F - 73.4 °F 100% 29.91 in 9.0 mi NNW 8.1 mph - N/A   Overcast
3:53 AM 73.9 °F - 72.0 °F 93% 29.91 in 10.0 mi NNW 10.4 mph - N/A   Overcast
4:06 AM 73.4 °F - 71.6 °F 94% 29.90 in 10.0 mi NW 8.1 mph - N/A   Overcast
4:46 AM 73.4 °F - 71.6 °F 94% 29.91 in 10.0 mi NW 8.1 mph - N/A   Overcast
4:53 AM 73.9 °F - 72.0 °F 93% 29.91 in 10.0 mi NW 9.2 mph - N/A   Mostly Cloudy
5:08 AM 73.4 °F - 71.6 °F 94% 29.92 in 10.0 mi NW 5.8 mph - N/A   Scattered Clouds
5:37 AM 73.4 °F - 71.6 °F 94% 29.92 in 10.0 mi NW 8.1 mph - N/A   Mostly Cloudy
5:53 AM 73.9 °F - 72.0 °F 93% 29.92 in 10.0 mi NW 6.9 mph - N/A   Overcast
6:53 AM 73.9 °F - 71.1 °F 91% 29.94 in 10.0 mi NW 9.2 mph - N/A   Overcast
7:53 AM 73.0 °F - 71.1 °F 93% 29.95 in 10.0 mi WNW 9.2 mph - N/A   Mostly Cloudy
8:21 AM 73.4 °F - 71.6 °F 94% 29.96 in 10.0 mi NNW 8.1 mph - 0.00 in   Mostly Cloudy
8:53 AM 75.0 °F - 72.0 °F 90% 29.98 in 10.0 mi NW 9.2 mph - 0.00 in   Scattered Clouds
9:53 AM 80.1 °F 83.6 °F 71.1 °F 74% 29.99 in 10.0 mi North 19.6 mph 26.5 mph N/A   Scattered Clouds
1:53 PM 84.2 °F 88.4 °F 69.8 °F 62% 29.98 in 10.0 mi North 19.6 mph 26.5 mph N/A   Scattered Clouds
2:53 PM 84.2 °F 88.4 °F 69.8 °F 62% 29.96 in 10.0 mi North 18.4 mph 25.3 mph N/A   Scattered Clouds
4:53 PM 80.6 °F 83.9 °F 69.8 °F 70% 29.97 in 10.0 mi North 19.6 mph - N/A   Scattered Clouds
5:53 PM 77.0 °F - 69.8 °F 78% 29.98 in 10.0 mi North 18.4 mph 23.0 mph N/A   Partly Cloudy
7:53 PM 73.4 °F - 68.0 °F 83% 29.99 in 10.0 mi North 13.8 mph 23.0 mph N/A   Partly Cloudy
8:53 PM 73.4 °F - 68.0 °F 83% 30.00 in 10.0 mi North 18.4 mph - N/A   Partly Cloudy
9:53 PM 73.0 °F - 68.0 °F 84% 30.01 in 10.0 mi NNW 8.1 mph - N/A   Clear
9:55 PM 73.4 °F - 68.0 °F 83% 30.01 in 10.0 mi NNW 8.1 mph - N/A   Clear
10:53 PM 73.0 °F - 68.0 °F 84% 30.02 in 10.0 mi NNW 9.2 mph - N/A   Clear
11:53 PM 71.1 °F - 68.0 °F 90% 30.02 in 10.0 mi NNW 10.4 mph - N/A   Clear
11:54 PM 71.6 °F - 68.0 °F 88% 30.02 in 10.0 mi NNW 10.4 mph - N/A   Clear